User: anonymous   Login
Location: Chuathbaluk
(61.5726°N, 159.2454°W)
Time: 00:52:57
(UTC+00:00)
Language:

TIGRISAT - Orbit

View from above orbital plane
View from above orbital plane
View from above satellite
View from above satellite

Ground track
Ground track

The orbit data is extracted from the following two-line orbital elements,

1 40043U 14033AK  21023.57387116  .00000151  00000-0  29499-4 0  9992
2 40043  97.6844 234.8824 0060080   8.3311 351.8881 14.74469342354484
Epoch (UTC): 23 January 2021 13:46:22
Eccentricity: 0.0060080
inclination: 97.6844°
perigee height: 604 km
apogee height: 689 km
right ascension of ascending node: 234.8824°
argument of perigee: 8.3311°
revolutions per day: 14.74469342
mean anomaly at epoch: 351.8881°
orbit number at epoch: 35448

The dashed part of the orbit path shows where the satellite is in the earth's shadow,  

DLR